Regional Weather Roundup
Issued by NWS Cleveland, OH

Home | Current Version | Previous Version | Graphics & Text | Print | Product List | Glossary On
Versions: 1 2 3 4 5 6 7 8 9 10 11 12 13 14 15 16 17 18 19 20 21 22 23 24 25 26 27 28 29 30 31 32 33 34 35 36 37 38 39 40 41 42 43 44 45 46 47 48 49 50
000
ASUS41 KCLE 041902
RWRCLE
OHIO REGIONAL WEATHER ROUNDUP
NATIONAL WEATHER SERVICE CLEVELAND, OH
300 PM EDT MON MAY 04 2015

NOTE: "FAIR" INDICATES FEW OR NO CLOUDS BELOW 12,000 FEET WITH NO
SIGNIFICANT WEATHER AND/OR OBSTRUCTIONS TO VISIBILITY.

OHZ001>008-015>018-024>027-034-035-043-044-042000-
   NORTHWEST OHIO

CITY           SKY/WX    TMP DP  RH WIND       PRES   REMARKS
DEFIANCE       LGT RAIN  67  60  78 SW7       30.14R
FINDLAY        LGT RAIN  68  58  70 SW13      30.14S
TOLEDO EXPRESS LGT RAIN  67  59  75 SW7       30.12R
TOLEDO EXEC    CLOUDY    67  59  75 SW12      30.12F
LIMA           LGT RAIN  66  59  78 SW6       30.15S
$$

OHZ009>014-019>023-028>033-038-089-042000-
   NORTHEAST OHIO

CITY           SKY/WX    TMP DP  RH WIND       PRES   REMARKS
CLE-HOPKINS    CLOUDY    75  54  47 W17G33    30.14S
CLE-LAKEFRONT  CLOUDY    62  52  69 W10       30.12R
CUY CO. ARPT   CLOUDY    70  55  60 NW17G23   30.14R
LORAIN-ELYRIA  CLOUDY    74  55  51 W12       30.14R
ASHTABULA      PTSUNNY   78  47  33 W24G31    30.12R
AKRON-CANTON   PTSUNNY   81  48  31 W15G29    30.15S
WOOSTER        PTSUNNY   80  48  32 W20G29    30.14S
MANSFIELD      CLOUDY    75  53  46 W12       30.16R
YOUNGSTOWN     CLOUDY    81  48  31 SW17      30.13F
$$

OHZ042-051>053-060>062-070>072-077>081-042000-
  SOUTHWEST OHIO

CITY           SKY/WX    TMP DP  RH WIND       PRES   REMARKS
CINC-COVINGTON PTSUNNY   77  55  46 W8        30.18S
CINC-LUNKEN    PTSUNNY   77  55  46 SW12      30.17F
HAMILTON       CLOUDY    77  55  46 W7        30.18S
DAYTON         LGT RAIN  73  56  54 SW13      30.18S
WRIGHT-PAT AFB CLOUDY    76  54  47 SW14G21   30.16F
DAYTON GENERAL CLOUDY    76  53  44 SW13      30.17S
WILMINGTON     PTSUNNY   77  53  43 W13       30.17F
$$

OHZ036-037-039>041-045>050-054>059-063>069-073>076-082>088-042000-
  CENTRAL AND SOUTHEAST OHIO

CITY           SKY/WX    TMP DP  RH WIND       PRES   REMARKS
COLUMBUS       PTSUNNY   79  51  37 SW16G23   30.15F
OSU AIRPORT    PTSUNNY   79  52  38 W13G22    30.15F
BOLTON FIELD   NOT AVBL
RICKENBACK AFB NOT AVBL
NEWARK         MOSUNNY   79  52  38 SW16G26   30.16F
MARION         CLOUDY    75  53  46 W12       30.16S
LANCASTER      PTSUNNY   79  52  38 W10G22    30.17F
ZANESVILLE     MOSUNNY   79  46  31 SW15G23   30.17F
NEW PHILLY     MOSUNNY   83  45  26 SW14G24   30.16S
$$



USA.gov is the U.S. government's official web portal to all federal, state and local government web resources and services.